Change the Weather History Date:

Tuesday, October 30, 2012

  Actual Average Record
Temperature  
Mean Temperature 57 °F -  
Max Temperature 68 °F 82 °F 91 °F (1959)
Min Temperature 48 °F 62 °F 46 °F (2008)
Degree Days  
Heating Degree Days 8    
Growing Degree Days 7 (Base 50)    
Moisture  
Dew Point 37 °F    
Average Humidity 48    
Maximum Humidity 75    
Minimum Humidity 29    
Precipitation  
Precipitation 0.00 in - - ()
Sea Level Pressure  
Sea Level Pressure 29.91 in    
Wind  
Wind Speed 11 mph (WNW)    
Max Wind Speed 22 mph    
Max Gust Speed 31 mph    
Visibility 10 miles    
Events      
Averages and records for this station are not official NWS values.
T = Trace of Precipitation, MM = Missing Value Source: NWS Daily Summary

Daily Weather History Graph

Daily Weather History Graph

Search for Another Location

Airport or City:

Trip Planner

Search our weather history database for the weather conditions in past years. The results will help you decide how hot, cold, wet, or windy it might be!

Date:

Astronomy

Oct. 30, 2012 Rise Set
Actual Time 7:37 AM EDT 6:43 PM EDT
Civil Twilight 7:13 AM EDT 7:07 PM EDT
Nautical Twilight 6:45 AM EDT 7:35 PM EDT
Astronomical Twilight 6:17 AM EDT 8:02 PM EDT
Moon 7:19 PM EDT (10/30) 8:16 AM EDT (10/30)
Length of Visible Light 11h 54m
Length of Day
11h 06m
Full, 99% of the Moon is Illuminated
Oct 30
Full
Nov 6
Last Quarter
Nov 13
New
Nov 20
First Quarter
Nov 28
Full

Hourly Weather History & Observations

Time (EDT) Temp. Dew Point Humidity Pressure Visibility Wind Dir Wind Speed Gust Speed Precip Events Conditions
12:53 AM 54.0 °F 37.0 °F 53% 29.87 in 10.0 mi NW 11.5 mph - N/A   Clear
1:53 AM 52.0 °F 36.0 °F 54% 29.86 in 10.0 mi NW 10.4 mph - N/A   Clear
2:53 AM 51.1 °F 34.0 °F 52% 29.86 in 10.0 mi NW 11.5 mph - N/A   Clear
3:53 AM 51.1 °F 33.1 °F 50% 29.87 in 10.0 mi NW 12.7 mph - N/A   Clear
4:53 AM 50.0 °F 32.0 °F 50% 29.88 in 10.0 mi NW 11.5 mph - N/A   Clear
5:53 AM 48.9 °F 30.0 °F 48% 29.89 in 10.0 mi NW 9.2 mph - N/A   Clear
6:53 AM 48.0 °F 28.9 °F 48% 29.91 in 10.0 mi WNW 6.9 mph - N/A   Clear
7:53 AM 48.0 °F 30.0 °F 50% 29.92 in 10.0 mi NW 8.1 mph - N/A   Clear
8:53 AM 52.0 °F 28.9 °F 41% 29.94 in 10.0 mi WNW 9.2 mph - N/A   Clear
9:53 AM 55.0 °F 33.1 °F 43% 29.94 in 10.0 mi West 4.6 mph - N/A   Clear
10:53 AM 61.0 °F 39.9 °F 46% 29.94 in 10.0 mi West 11.5 mph 19.6 mph N/A   Clear
11:53 AM 64.9 °F 37.9 °F 37% 29.93 in 10.0 mi West 16.1 mph 31.1 mph N/A   Clear
12:53 PM 66.0 °F 33.1 °F 29% 29.91 in 10.0 mi West 20.7 mph 29.9 mph N/A   Clear
1:53 PM 66.0 °F 36.0 °F 33% 29.90 in 10.0 mi West 17.3 mph 28.8 mph N/A   Clear
2:53 PM 66.9 °F 37.0 °F 33% 29.89 in 10.0 mi WNW 15.0 mph 26.5 mph N/A   Clear
3:53 PM 66.0 °F 37.0 °F 34% 29.89 in 10.0 mi West 21.9 mph 26.5 mph N/A   Clear
4:53 PM 66.0 °F 36.0 °F 33% 29.88 in 10.0 mi West 20.7 mph 29.9 mph N/A   Clear
5:53 PM 64.0 °F 37.0 °F 37% 29.89 in 10.0 mi West 12.7 mph - N/A   Clear
8:53 PM 59.0 °F 46.0 °F 62% 29.94 in 10.0 mi West 8.1 mph - N/A   Clear
9:53 PM 57.0 °F 48.0 °F 72% 29.96 in 10.0 mi WSW 4.6 mph - N/A   Clear
10:53 PM 55.9 °F 48.0 °F 75% 29.98 in 10.0 mi WSW 5.8 mph - N/A   Clear
11:53 PM 55.9 °F 48.0 °F 75% 29.98 in 10.0 mi West 4.6 mph - N/A   Clear